Tracking 30995 objects as of 5-Jul-2025
HD Live streaming from Space Station
objects crossing your sky now

CZ-2C R/B

Track CZ-2C R/B now!
10-day predictions


NORAD ID: 43521
Int'l Code: 2018-054D
Perigee: 393.1 km
Apogee: 434.2 km
Inclination: 35.1 °
Period: 92.7 minutes
Semi major axis: 6784 km
RCS: Unknown
Launch date: June 27, 2018
Source: People's Republic of China (PRC)
Launch site: Xichang Space Center, China (XSC)

Note: This is a ROCKET BODY
Your satellite tracking list
NOAA 17 DEB
Track 1 satellite(s)




NASA's NSSDC Master Catalog

Two Line Element Set (TLE):
1 43521U 18054D   25186.15065914  .00024948  00000-0  37290-3 0  9997
2 43521  35.1367 168.9337 0030296  60.4654 299.9088 15.53488328389949
Source of the keplerian elements: AFSPC